Moffett Field, CA

6:31 AM PDT on September 05, 2015 (GMT -0700)
Moffett Federal Air Field | | Change Station
CLOSE
Current Station
Airport
Location: Moffett NAS,
Elevation: 39 ft
Nearby Weather Stations

Elev 39 ft 37.41 °N, 122.05 °W | Updated 35 minutes ago

Clear
Clear
54 °F
Feels Like 54 °F
N
0
Wind Variable Wind from North

Today
High -- | Low -- °F
--% Chance of Precip.
Yesterday
High -- | Low -- °F
Precip. -- in
6:41 AM 7:31 PM
Waning Gibbous, 48% visible
Pressure 29.95 in
Visibility 10.0 miles
Clouds Clear
Dew Point 46 °F
Humidity 75%
Rainfall 0.00 in
Snow Depth Not available.
UV 0 out of 12
Pollen 8.90 out of 12
Air Quality Not available.
Flu Activity Not available.
METAR KNUQ 051256Z 00000KT 10SM CLR 12/08 A2994 RMK AO2 SLP142 T01220078
Pressure 29.95 in
Visibility 10.0 miles
Clouds Clear
Dew Point 46 °F
Humidity 75%
Rainfall 0.00 in
Snow Depth Not available.
UV 0 out of 12
Pollen 8.90 out of 12
Air Quality Not available.
Flu Activity Not available.
METAR KNUQ 051256Z 00000KT 10SM CLR 12/08 A2994 RMK AO2 SLP142 T01220078

10-Day Weather Forecast

×

Almanac

Astronomy

Sep. 05, 2015 Rise Set
Actual Time
Civil Twilight
Nautical Twilight
Astronomical Twilight
Moon
Length of Visible Light
Length of Day
Tomorrow will be .
, % of the Moon is Illuminated

Today's Extremes

State Highs State Lows

Community

WunderPhotos

Upload Photos

1,852,454 photos uploaded!

WunderBlogs® & News

Nearby

Air Quality

  Air Quality AQ Index Pollutant
Not available.

Snow Depth

Station Depth Elevation

Earthquake Activity

City Distance Mag. Time & Date
Minimum magnitude displayed is 2.5.

Coastal Water Temperatures

Place Temperature

Stations

Nearby Weather Stations

Station Location Temp. Windchill Dew Point Humidity Wind Precip. Elev Updated Type